Location: Blairvadach
(56.2780°N, 6.9720°W)
Time: 20:05:37
(UTC+00:00)

Envisat - Visible Passes

Search period start: 17 February 2019 00:00
Search period end: 27 February 2019 00:00
Orbit: 764 x 766 km, 98.2° (Epoch: 17 February)

Date Brightness Start Highest point End Pass type
(mag) Time Alt. Az. Time Alt. Az. Time Alt. Az.
17 Feb 3.4 19:07:11 10° S 19:12:14 66° WSW 19:17:20 10° NNW visible
17 Feb 6.1 20:49:53 10° WSW 20:52:17 13° W 20:54:42 10° NW visible
18 Feb 3.0 18:30:25 10° SSE 18:35:28 70° ENE 18:40:33 10° NNW visible
18 Feb 5.3 20:10:54 10° SW 20:14:59 24° W 20:19:08 10° NW visible
19 Feb 6.2 06:32:40 10° NE 06:35:23 14° E 06:38:05 10° ESE visible
19 Feb 4.3 19:33:04 10° S 19:37:54 43° W 19:42:46 10° NNW visible
20 Feb 3.2 18:55:55 10° SSE 19:01:00 79° WSW 19:06:08 10° NNW visible
20 Feb 5.9 20:37:49 10° WSW 20:40:54 16° W 20:43:59 10° NW visible
21 Feb 5.9 06:57:23 10° NE 07:01:18 22° E 07:05:11 10° SE visible
21 Feb 3.1 18:19:18 10° SE 18:24:17 59° ENE 18:29:18 10° N visible
21 Feb 5.1 19:59:17 10° SSW 20:03:40 29° W 20:08:05 10° NNW visible
22 Feb 6.4 06:22:09 10° ENE 06:23:58 12° E 06:25:47 10° ESE visible
22 Feb 3.9 19:21:41 10° S 19:26:37 52° W 19:31:37 10° NNW visible
23 Feb 3.0 18:44:41 10° SSE 18:49:47 88° ENE 18:54:55 10° NNW visible
23 Feb 5.7 20:25:57 10° SW 20:29:32 19° W 20:33:07 10° NW visible
24 Feb 6.0 06:46:26 10° NE 06:49:57 18° E 06:53:25 10° SE visible
24 Feb 4.8 19:47:45 10° SSW 19:52:21 34° W 19:56:59 10° NNW visible
25 Feb 3.6 19:10:20 10° S 19:15:22 62° WSW 19:20:27 10° NNW visible
25 Feb 6.1 20:53:27 10° WSW 20:55:29 12° W 20:57:31 10° WNW visible
26 Feb 3.0 18:33:30 10° SSE 18:38:35 75° ENE 18:43:40 10° NNW visible
26 Feb 5.5 20:14:12 10° SW 20:18:10 23° W 20:22:09 10° NW visible
